TimeMDT,TemperatureF,Dew PointF,Humidity,Sea Level PressureIn,VisibilityMPH,Wind Direction,Wind SpeedMPH,Gust SpeedMPH,PrecipitationIn,Events,Conditions,WindDirDegrees,DateUTC
12:53 AM,48.0,43.0,83,29.89,10.0,North,5.8,-,N/A,,Scattered Clouds,350,2013-08-24 06:53:00
1:53 AM,44.1,41.0,89,29.90,10.0,NE,6.9,-,N/A,,Clear,50,2013-08-24 07:53:00
2:53 AM,42.1,39.0,89,29.93,10.0,Calm,Calm,-,N/A,,Clear,0,2013-08-24 08:53:00
3:53 AM,44.1,41.0,89,29.99,10.0,Calm,Calm,-,N/A,,Scattered Clouds,0,2013-08-24 09:53:00
4:53 AM,43.0,39.0,86,29.96,10.0,East,3.5,-,N/A,,Partly Cloudy,90,2013-08-24 10:53:00
5:53 AM,44.1,39.9,85,29.95,10.0,Calm,Calm,-,N/A,,Mostly Cloudy,0,2013-08-24 11:53:00
6:53 AM,46.9,39.9,77,29.94,10.0,East,4.6,-,N/A,,Overcast,100,2013-08-24 12:53:00
7:53 AM,51.1,39.9,66,29.97,10.0,Calm,Calm,-,N/A,,Overcast,0,2013-08-24 13:53:00
8:53 AM,55.0,41.0,59,29.96,10.0,West,3.5,-,N/A,,Clear,280,2013-08-24 14:53:00
9:53 AM,57.9,39.9,51,29.95,10.0,South,4.6,-,N/A,,Scattered Clouds,170,2013-08-24 15:53:00
10:53 AM,60.1,39.0,46,29.96,10.0,NNW,5.8,-,N/A,,Overcast,340,2013-08-24 16:53:00
11:53 AM,60.1,37.9,44,29.98,10.0,NW,10.4,-,N/A,,Overcast,320,2013-08-24 17:53:00
12:53 PM,61.0,37.0,41,29.97,10.0,NNW,9.2,-,N/A,,Overcast,340,2013-08-24 18:53:00
1:53 PM,63.0,37.0,38,29.99,10.0,NNW,8.1,-,N/A,,Overcast,330,2013-08-24 19:53:00
2:53 PM,63.0,36.0,37,29.98,10.0,West,5.8,-,N/A,,Overcast,280,2013-08-24 20:53:00
3:53 PM,64.0,37.0,37,29.95,10.0,WSW,8.1,-,N/A,,Mostly Cloudy,250,2013-08-24 21:53:00
4:53 PM,66.0,36.0,33,29.92,10.0,NW,5.8,-,N/A,,Scattered Clouds,320,2013-08-24 22:53:00
5:33 PM,62.6,37.4,39,30.42,10.0,WNW,4.6,-,N/A,Thunderstorm,Overcast,300,2013-08-24 23:33:00
5:53 PM,55.0,46.0,72,30.01,6.0,South,23.0,31.1,0.00,Rain-Thunderstorm,Light Thunderstorms and Rain,180,2013-08-24 23:53:00
6:02 PM,51.8,46.4,82,30.46,5.0,SSE,12.7,28.8,0.00,Rain-Thunderstorm,Light Thunderstorms and Rain,160,2013-08-25 00:02:00
6:27 PM,51.8,46.4,82,30.46,7.0,NNE,3.5,-,0.02,Rain,Light Rain,20,2013-08-25 00:27:00
6:53 PM,52.0,46.9,83,30.04,10.0,North,6.9,-,0.02,,Overcast,10,2013-08-25 00:53:00
7:53 PM,51.1,46.0,83,30.02,10.0,NNE,6.9,-,N/A,,Overcast,30,2013-08-25 01:53:00
8:53 PM,48.9,46.0,90,30.03,10.0,North,4.6,-,0.00,Rain,Light Rain,350,2013-08-25 02:53:00
9:53 PM,46.9,45.0,93,30.03,10.0,NNE,4.6,-,0.00,,Clear,30,2013-08-25 03:53:00
10:53 PM,45.0,42.1,90,30.04,10.0,NE,3.5,-,N/A,,Partly Cloudy,50,2013-08-25 04:53:00
11:53 PM,45.0,42.1,90,30.04,10.0,NNW,4.6,-,N/A,,Mostly Cloudy,340,2013-08-25 05:53:00